Yeovilton, United Kingdom

12:02 PM BST on June 25, 2018 (GMT +0100)
Yeovil Radar Navy

Weather History for EGDY - October, 2017

Change the Weather History Date:

Saturday, October 14, 2017

  Actual Average Record
Temperature  
Mean Temperature 60 °F -  
Max Temperature 65 °F 54 °F 65 °F (2017)
Min Temperature 55 °F 41 °F 30 °F (2012)
Degree Days  
Heating Degree Days 5    
Growing Degree Days 10 (Base 50)    
Moisture  
Dew Point 58 °F    
Average Humidity 88    
Maximum Humidity 94    
Minimum Humidity 68    
Precipitation  
Precipitation 0.00 in - - ()
Sea Level Pressure  
Sea Level Pressure 30.21 in    
Wind  
Wind Speed 8 mph ()    
Max Wind Speed 14 mph    
Max Gust Speed -    
Visibility 7.5 miles    
Events      
Averages and records for this station are not official NWS values.
T = Trace of Precipitation, MM = Missing Value Source: Averaged Metar Reports

Daily Weather History Graph

Daily Weather History Graph

Search for Another Location

Airport or City:

Astronomy

Oct. 14, 2017 Rise Set
Actual Time 7:32 AM BST 6:19 PM BST
Civil Twilight 6:58 AM BST 6:53 PM BST
Nautical Twilight 6:20 AM BST 7:31 PM BST
Astronomical Twilight 5:42 AM BST 8:09 PM BST
Moon 1:01 AM BST (10/14) 4:16 PM BST (10/14)
Length of Visible Light 11h 54m
Length of Day
10h 47m
Waning Crescent, 29% of the Moon is Illuminated
Oct 14
Waning Crescent
Oct 19
New
Oct 27
First Quarter
Nov 4
Full
Nov 10
Last Quarter

Hourly Weather History & Observations

Time (BST) Temp. Dew Point Humidity Pressure Visibility Wind Dir Wind Speed Gust Speed Precip Events Conditions
12:00 AM 61 °F 59 °F 90% 30.23 in 5 mi SSW 13.8 mph - -   Mist
12:50 AM 60.8 °F 59.0 °F 94% 30.21 in 6.2 mi SSW 5.8 mph - N/A   Overcast
1:00 AM 61 °F 59 °F 89% 30.23 in 8 mi SSW 5.8 mph - -   Overcast
1:50 AM 60.8 °F 59.0 °F 94% 30.21 in 6.2 mi SSW 9.2 mph - N/A   Overcast
2:00 AM 61 °F 58 °F 88% 30.23 in 7 mi SSW 9.2 mph - -   Overcast
2:50 AM 60.8 °F 59.0 °F 94% 30.21 in 6.2 mi SSW 9.2 mph - N/A   Overcast
3:00 AM 61 °F 58 °F 88% 30.24 in 7 mi SSW 9.2 mph - -   Overcast
3:50 AM 60.8 °F 59.0 °F 94% 30.21 in 6.2 mi South 6.9 mph - N/A   Overcast
4:50 AM 60.8 °F 59.0 °F 94% 30.21 in 6.2 mi South 10.4 mph - N/A   Mostly Cloudy
5:00 AM 60 °F 58 °F 91% 30.22 in 7 mi South 10.4 mph - -   Scattered Clouds
5:50 AM 60.8 °F 59.0 °F 94% 30.21 in 6.2 mi South 10.4 mph - N/A   Mostly Cloudy
6:00 AM 60 °F 58 °F 92% 30.23 in 6 mi South 10.4 mph - -   Partly Cloudy
6:50 AM 60.8 °F 59.0 °F 94% 30.21 in 5.6 mi South 8.1 mph - N/A   Haze
7:00 AM 60 °F 58 °F 92% 30.22 in 6 mi South 8.1 mph - -   Light Haze
7:50 AM 60.8 °F 59.0 °F 94% 30.21 in 6.2 mi South 4.6 mph - N/A   Mostly Cloudy
8:00 AM 60 °F 58 °F 92% 30.24 in 6 mi South 4.6 mph - -   Partly Cloudy
8:50 AM 60.8 °F 59.0 °F 94% 30.24 in 5.6 mi West 5.8 mph - N/A   Haze
9:00 AM 61 °F 59 °F 89% 30.25 in 6 mi West 5.8 mph - -   Light Haze
9:50 AM 60.8 °F 59.0 °F 94% 30.24 in 6.2 mi South 6.9 mph - N/A   Overcast
10:50 AM 62.6 °F 59.0 °F 88% 30.24 in 6.2 mi SSW 9.2 mph - N/A   Mostly Cloudy
11:50 AM 64.4 °F 59.0 °F 83% 30.24 in 6.2 mi SSW 9.2 mph - N/A   Overcast
12:00 PM 65 °F 58 °F 73% 30.26 in 19 mi SSW 9.2 mph - -   Overcast
12:50 PM 66.2 °F 57.2 °F 73% 30.24 in 6.2 mi SW 6.9 mph - N/A   Mostly Cloudy
1:00 PM 65 °F 57 °F 68% 30.26 in 22 mi SW 6.9 mph - -   Mostly Cloudy
1:50 PM 64.4 °F 57.2 °F 77% 30.24 in 6.2 mi SSW 6.9 mph - N/A   Overcast
2:50 PM 64.4 °F 59.0 °F 83% 30.24 in 6.2 mi SSW 9.2 mph - N/A   Overcast
3:00 PM 64 °F 58 °F 77% 30.25 in 19 mi SSW 9.2 mph - -   Overcast
3:50 PM 62.6 °F 59.0 °F 88% 30.21 in 6.2 mi South 6.9 mph - N/A   Overcast
4:00 PM 63 °F 58 °F 79% 30.24 in 13 mi South 6.9 mph - -   Overcast
4:50 PM 62.6 °F 59.0 °F 88% 30.21 in 6.2 mi South 5.8 mph - N/A   Overcast
5:00 PM 63 °F 58 °F 80% 30.23 in 19 mi South 5.8 mph - -   Overcast
5:50 PM 60.8 °F 57.2 °F 88% 30.18 in 6.2 mi SSE 6.9 mph - N/A   Partly Cloudy
6:00 PM 62 °F 57 °F 79% 30.21 in 22 mi SSE 6.9 mph - -   Scattered Clouds
6:50 PM 57.2 °F 55.4 °F 94% 30.18 in 6.2 mi SSE 5.8 mph - N/A   Unknown
7:00 PM 58 °F 56 °F 89% 30.20 in 11 mi SSE 5.8 mph - -  
7:50 PM 55.4 °F 53.6 °F 94% 30.18 in 6.2 mi SSE 5.8 mph - N/A   Unknown
8:50 PM 55.4 °F 53.6 °F 94% 30.15 in 6.2 mi ESE 5.8 mph - N/A   Unknown
9:00 PM 56 °F 54 °F 92% 30.18 in 8 mi ESE 5.8 mph - -  
9:50 PM 57.2 °F 55.4 °F 94% 30.15 in 5.6 mi SE 9.2 mph - N/A   Mostly Cloudy
10:00 PM 57 °F 55 °F 92% 30.17 in 6 mi SE 9.2 mph - -   Mist
10:50 PM 57.2 °F 55.4 °F 94% 30.12 in 6.2 mi SE 9.2 mph - N/A   Partly Cloudy
11:00 PM 57 °F 55 °F 89% 30.15 in 6 mi SE 9.2 mph - -   Scattered Clouds
11:50 PM 55.4 °F 53.6 °F 94% 30.12 in 6.2 mi SSE 8.1 mph - N/A   Unknown